Regional Weather Roundup
Issued by NWS Newport/Morehead, NC

Current Version | Previous Version | Text Only | Print | Product List | Glossary Off
Versions: 1 2 3 4 5 6 7 8 9 10 11 12 13 14 15 16 17 18 19 20 21 22 23 24 25 26 27 28 29 30 31 32 33 34 35 36 37 38 39 40 41 42 43 44 45 46 47 48 49 50
000 ASUS42 KMHX 252113 RWRMHX WEATHER ROUNDUP FOR EASTERN NORTH CAROLINA NATIONAL WEATHER SERVICE NEWPORT/MOREHEAD CITY NC 500 PM EDT SAT MAR 25 2017 NOTE: "FAIR" INDICATES FEW OR NO CLOUDS BELOW 12,000 FEET WITH NO SIGNIFICANT WEATHER AND/OR OBSTRUCTIONS TO VISIBILITY NCZ015>017-031-032-045>047-102-103-252200- NORTH COAST CITY SKY/WX TMP DP RH WIND PRES REMARKS EDENTON NOT AVBL ELIZABETH CITY CLOUDY 74 50 42 SW14G22 30.21F KITTY HAWK NOT AVBL MANTEO MOSUNNY 66 53 61 SW20 30.24S $$ NCZ045>047-081-094-103-104-252200- CENTRAL COAST CITY SKY/WX TMP DP RH WIND PRES REMARKS FRISCO MOSUNNY 70 54 56 W12 30.28S $$ NCZ095-097-098-100-101-252200- SOUTHERN COAST CITY SKY/WX TMP DP RH WIND PRES REMARKS BEAUFORT MOSUNNY 71 53 52 SW12 30.28F CEDAR ISLAND NOT AVBL JACKSONVILLE CLOUDY 72 52 49 S10 30.25F PINEY ISLAND PTCLDY N/A N/A N/A SW16G23 30.27F WILMINGTON CLOUDY 72 51 47 S8 30.26F $$ NCZ011>013-027>030-043-044-078>080-089-090>093-098-252200- COASTAL PLAIN CITY SKY/WX TMP DP RH WIND PRES REMARKS AHOSKIE NOT AVBL CLINTON PTSUNNY 74 54 49 S7 30.23F ELIZABETHTOWN PTSUNNY 74 52 45 S7 30.23F GOLDSBORO CLOUDY 75 49 39 S13 30.20F GREENVILLE CLOUDY 77 50 38 SW13 30.22F HAVELOCK MOSUNNY 72 48 43 SW17G23 30.27F KENANSVILLE CLOUDY 73 52 46 SW6 30.24S KINSTON PTSUNNY 73 48 40 SW9 30.23F NEW BERN PTSUNNY 73 51 46 SW16G23 30.26S RICHLANDS CLOUDY 72 54 53 S12 30.25F ROCKY MOUNT MOSUNNY 74 51 44 S10 30.21F WASHINGTON CLOUDY 75 52 45 S9 30.23F WHITEVILLE PTSUNNY 73 49 42 S10 30.24S $$ AMZ130-135-150-152-154-156-158-170-250-252-270-ANZ085-086-088-633-658-670-252200- MARINE OBSERVATIONS STATION/POSITION TIME TEMP WIND PRES WAVE SWELL AIR SEA DIR/SP/G HT/PER HT/PER (UTC) (F) (DEG/KT/KT) (MB) (FT/S) (FT/S) CHESAPEAKE LIGHT NOT AVBL 64 E VA BEACH 2050 56 49 210/ 14/ 16 1023.4 3/ 5 2/ 9 DUCK 2048 70 47 220/ 6/ 9 1022.9 2 E DUCK 2030 51 N/A 1/ 8 OREGON INLET 2048 190/ 15/ 18 N/A 13E OREGON INLT 2048 50 N/A 2/11 2/11 HATTERAS CG 2048 68 58 230/ 9/ 13 1025.0 DIAMOND BUOY 2050 70 77 230/ 16/ 17 1025.2 3/ 5 2/10 CAPE LOOKOUT 2100 69 230/ 7/ 8 1025.1 BEAUFORT LAB 2048 70 55 210/ 7/ 8 1024.5 30 SE NEW RVR IN 2008 68 230/ 8/ 10 1025.7 30 SE NEW RVR IN 2043 67 N/A 3/ 9 27 SE WRIGHTSVLE 2008 67 63 170/ 6/ 10 1025.1 5 SE WRIGHTSVLE 2008 62 59 180/ 6/ 8 1025.2 225 S CAPE HAT 2050 66 73 80/ 10/ 14 1026.1 4/ 8 3/ 8 41 SE CHARLESTON 2050 70 72 140/ 14/ 17 1023.8 4/ 8 3/ 8 $$

USA.gov is the U.S. government's official web portal to all federal, state and local government web resources and services.